Home Info/FAQ Results Stuff Corp Events Volunteer Contact Us
 

 

Once again A Race for Maggie's Place drew hundreds of people to run in one of the most uniquely distanced races around.

Participants took place in a 3k fun run, kids run, timed .9K and 9K. Results for the latter two are below.

And please take this opportunity to help Maggie's Place do even more in the communities we serve by donating today!

 

Please direct any questions or comments about timing to Info@SierraAdventureSports.com

 

Calendar of Events

 
 
 
 
 
 

.9K Overall Results

Bib Name  Finish Age Div Gender City
1989 Roy Holtmann 00:04:25 29 1m M Phoenix
1998 Zack Williams 00:05:58 9 1m M Peoria
1990 Joshua Jones 00:06:16 9 1m M Peoria
1997 Kristin Tegethoff 00:06:24 24 1m F Phoenix
1958 Joel Sanders . 00:06:27 99 1m M Phoenix
1945 Micheal Brown 00:06:28 48 1m M Goodyear
1995 Betty Peterson 00:06:31 63 1m F Willcox
1966 Mark Kish 00:06:33 34 1m M Phoenix
1965 Jaime Kish 00:06:36 33 1m F Phoenix
1987 Matthew Farfante 00:09:46 17 1m M Phoenix
1799 Linda Kent 00:09:46 39 1m F New Jersey

 

9K First Overall, then by Age Group

Bib Name  Finish Age Div Gender City
1934 Nathan Rath 00:31:55 28 9K M Chandler
1960 Bobby Mirzaie 00:35:21 31 9K M Scottsdale
1818 Ryan Nelson 00:35:45 22 9K M Anthem
1822 Brandon Wyatt 00:36:12 19 9K M Tempe
2008 John Taska 00:37:27 22 9K M Tempe
1664 jose morales 00:37:41 31 9K M phoenix
1803 Morgan! Stanton! (70.2) 00:38:12 27 9K F Chandler
2030 Bob Vossoughi 00:38:49 99 9K M Scottsdale
1721 Stuart Shoen 00:39:03 29 9K M Phoenix
1899 Brian Watson 00:39:24 26 9K M Tempe
1979 Marc Mousseux 00:39:45 45 9K M Tempe
1598 Savannah Hoover 00:39:47 16 9K F Chandler
1809 Fritz Rumpf 00:39:56 47 9K M Phoenix
1925 Dustyn Owsley 00:39:59 16 9K M Phoenix
1698 Philip Rein 00:40:12 38 9K M Scottsdale
1804 Zach! Chamberlin! (70.2) 00:40:19 34 9K M Chandler
2036 Joe McDaniel 00:41:00 29 9K M Scottsdale
1841 Brad Clemens 00:41:21 28 9K M Tempe
1842 Walkup Runner 00:41:23 99 9K M Phoenix
1515 Chris Bradley 00:41:47 41 9K M Gilbert
1826 Gage Camp 00:41:55 49 9K M Sierra Vista
1973 Mike O'Donnell 00:42:08 37 9K M Tempe
1771 Katie Zeiders 00:42:20 30 9K F Tempe
2007 Ariel Tichnor 00:42:28 23 9K F Phoenix
1790 Kelly Miller 00:42:29 46 9K F Scottsdale
1683 Doug Paul 00:42:40 32 9K M PHOENIX
1930 Monika Kennedy 00:42:54 42 9K F Phoenix
2019 Eric Stelzer 00:43:16 11 9K M Scottsdale
1946 Justina Silva 00:43:20 30 9K F Scottsdale
1739 Chuck Taylor 00:43:22 43 9K M Gilbert
2014 Travis Drzy 00:43:24 39 9K M Tempe
1937 Russ Frederiksen 00:43:37 42 9K M Phoenix
1601 Jennifer Iben 00:43:49 39 9K F Tempe
1692 Chris Quadrini 00:43:55 37 9K M Phoenix
2018 Ryan Stelzer 00:44:06 15 9K M Scottsdale
1768 Catherine Wyman 00:44:10 47 9K F Phoenix
1697 Karen Rein 00:44:24 37 9K F Scottsdale
2050 Kim Peihl 00:44:26 26 9K F Tempe
1530 Alex Cheroske 00:44:29 39 9K M Gilbert
1834 Jason Censky 00:44:31 21 9K M Tucson
1648 Andrew McGuire 00:44:35 41 9K M Mesa
1585 Jake Hadziev 00:44:40 28 9K M phoenix
1580 Jerry Greer 00:44:43 28 9K M Gilbert
1712 Jim Schafer 00:44:48 52 9K M Mesa
1847 Mark Schwietz 00:44:48 43 9K M Phoenix
1927 Leah Schafer 00:44:49 22 9K F Mesa
1874 Tom Klein 00:44:54 50 9K M Phoenix
1763 DAVID WILLIAMS . 00:44:55 44 9K M Scottsdale
2051 Paul Kent 00:44:59 43 9K M Tempe
1807 Becky Miller 00:45:03 99 9K F Phoenix
1831 Lisa Potter? 00:45:06 99 9K F Phoenix
1978 Kristine Holland 00:45:16 37 9K F Phoenix
1875 Andy Kunasek 00:45:35 46 9K M Phoenix
2020 Louis Hallman 00:45:45 16 9K M Tempe
2006 Karen Smith 00:45:51 45 9K F Tempe
1952 John Finnegan 00:46:24 99 9K M Scottsdale
1577 Grant Goss 00:46:37 29 9K M Scottsdale
1786 john janik 00:47:06 32 9K M Chandler
1584 Sylvia Hackett 00:47:08 36 9K F Mesa
1782 Kevin Heins 00:47:23 32 9K M Sierra Vista
1764 April Williams 00:47:43 44 9K F Scottsdale
1707 Kristin Russell 00:47:54 27 9K F Tempe
1528 cyndi carter 00:48:00 45 9K F scottsdale
1696 Amy Reid 00:48:03 31 9K F Chandler
1556 Mona Ekstrand 00:48:21 48 9K F Tempe
2015 Davide Sayada 00:48:21 53 9K M Chandler
1897 Dave Wells 00:48:23 45 9K M Phoenix
1788 Tom Leach 00:48:30 15 9K M Chandler
1805 Andy Wangrycht 00:48:32 52 9K M Tempe
1606 Meehae Jang 00:48:38 47 9K F Phoenix
1610 RAYMOND JOHNSON 00:48:40 26 9K M PHOENIX
1614 Kalen Joost 00:48:45 33 9K M Chandler
1613 Dana Joost 00:49:00 29 9K F Chandler
1619 Elizabeth Kern 00:49:01 34 9K F Chandler
1845 Sarah Redolpho 00:49:07 38 9K M scottsdale
1846 Kim Boullion 00:49:07 39 9K F scottsdale
1612 Kelly Jones 00:49:17 40 9K F Peoria
1732 Gene Stout 00:49:17 37 9K M Phoenix
1621 timothy kingsley 00:49:18 36 9K M scottsdale
1574 Diane Gibboni 00:49:22 53 9K F Glendale
1777 Patrick Flanagan 00:49:24 30 9K M Chicago
1593 Therese Hensler 00:49:29 28 9K F Scottsdale
1594 Matt Hensler 00:49:34 28 9K M Scottsdale
1643 Alexia Matak 00:49:45 29 9K F Scottsdale
2011 Jason Roth 00:49:46 99 9K M Scottsdale
1810 Shawn Bichler 00:49:49 43 9K F Scottsdale
1811 Kim Gifford 00:49:51 46 9K F Chandler
1573 Grace Giacobbi 00:49:52 39 9K F Chandler
1588 Margaret Hannahs 00:49:52 34 9K F Gilbert
1753 Rikki Waller 00:49:54 37 9K F Maricopa
1955 Julie Lenoch 00:49:55 36 9K F Colorado
1991 Michael Kumelski 00:49:55 37 1m M Phoenix
1977 Caitlin Andreen 00:50:00 15 9K F Phoenix
1783 Sarah Hughes 00:50:04 29 9K F Chicago
1666 Jamie Morris 00:50:09 34 9K M Peoria
1688 Christina Pieper 00:50:20 35 9K F Gilbert
1963 Anthony Nowicki 00:50:46 46 9K M Gilbert
1609 RAMONA JOHNSON 00:51:04 32 9K F TOLLESON
1730 Markus Stenzer 00:51:07 40 9K M Scottsdale
1639 Tim Macuga 00:51:08 46 9K M Tempe
1655 Kaitlyn Miller 00:51:09 22 9K F Scottsdale
1575 jennifer gloria 00:51:11 28 9K F mesa
1630 Amy Lahr 00:51:15 42 9K F Scottsdale
1954 Mike Rafford 00:51:16 38 9K M Tempe
2026 Matt Young 00:51:16 26 9K M Phoenix
2025 Ann Marie Sunderhaus 00:51:17 32 9K F Phoenix
1889 Andrea Schmalzer 00:51:26 32 9K F Phoenix
2017 Jim Stelzer 00:51:27 43 9K M Scottsdale
1662 Lillie Moore 00:51:28 29 9K F Phoenix
1676 Colleen Orth 00:51:33 24 9K F Phoenix
1953 Jonea Mounsey 00:51:35 48 9K F Peoria
1677 Joel Osinga 00:51:44 30 9K M Chandler
1570 Amy Garza 00:51:46 41 9K F Tempe
1710 Pauline Scanlon 00:51:48 45 9K F Scottsdale
1881 Dan Morrison 00:51:49 99 9K M Phoenix
2038 Katherine Nikes 00:52:02 99 9K M Tempe
1679 Amy O'Sullivan 00:52:03 28 9K F Scottsdale
1964 Shari Goin 00:52:07 44 9K F Phoenix
1661 Becky Moon 00:52:08 39 9K F Gilbert
1626 Crystal Korp 00:52:10 23 9K F Phoenix
1581 Sarah Gude 00:52:12 23 9K F Gilbert
1651 Erika Mesick 00:52:12 27 9K F Wauwatosa
1776 Richard Caselli 00:52:13 50 9K M Scottsdale
1800 Trisha Gosser 00:52:13 31 9K F Phoenix
1775 Maria Caselli 00:52:14 52 9K F Scottsdale
1631 Leanne LaMoure 00:52:16 28 9K F Phoenix
1699 Sr. Augustine Marie Reyburn 00:52:19 28 9K F Black Canyon City
1604 Gordon James 00:52:21 62 9K M Scottsdale
1508 Jeffrey Barnett 00:52:22 40 9K M Tempe
1627 Karen Kuzmovich 00:52:27 27 9K F Chandler
1738 Kimberly Taylor 00:52:27 30 9K F Chandler
2032 Dave Crawford 00:52:28 31 9K M Phoenix
1565 Laura Freeman 00:52:29 35 9K F Phoenix
1928 Connie Lagerhausen 00:52:30 53 9K F Mesa
1533 Diana Collins 00:52:35 33 9K F Gilbert
1706 Liz Rueter 00:52:38 42 9K F chandler
1982 Iman Donaldson 00:52:42 45 9K F Phoenix
1641 Lynnette Martin 00:52:49 33 9K F Mesa
1931 Dustin Hofstein 00:52:51 27 9K M Chandler
1684 Leslie Pechkurow 00:52:59 28 9K F Tempe
1933 Heather Garbarino 00:52:59 31 9K F Phoenix
1560 Ann Finnegan 00:53:04 30 9K F Phoenix
1657 Shara Miller 00:53:06 34 9K F scottsdale
1766 Julia Wipf 00:53:10 20 9K F Tempe
2022 Hugh Hallman 00:53:11 47 9K M Tempe
1984 Alexis DelChiaro 00:53:24 28 9K F Phoenix
1819 Nathan DeWitt 00:53:29 32 9K M Tempe
1758 Brendan Wells 00:53:31 29 9K M Scottsdale
1555 Maria Eichhold 00:53:34 23 9K F Glendale
1624 Marisa Kobar 00:53:51 47 9K F Gilbert
1587 CharlaAnne Hamilton 00:53:52 35 9K F Chandler
1943 Stephanie Jones 00:53:57 43 9K F Chandler
1750 bethany votaw 00:54:01 29 9K F gilbert
1521 Catherine Bullington 00:54:04 16 9K F Phoenix
1522 Susie Bullington 00:54:04 16 9K F Phoenix
1654 Jamie Mikla 00:54:04 38 9K F Gilbert
1538 Claire Cruess 00:54:04 15 9K F Phoenix
2034 Janet Rios 00:54:05 99 9K M Phoenix
2035 Jesus Rios 00:54:05 59 9K M Tucson
1678 Krista Osterberg Parmelee 00:54:06 29 9K F Mesa
1767 Carolyn Woods 00:54:08 38 9K F Gilbert
2012 Kate Bullington 00:54:08 13 9K F Phoenix
1682 Javier Parra 00:54:09 40 9K M Gilbert
1935 Nick Rizzo 00:54:11 40 9K M Gilbert
1844 Merle McDonald? 00:54:12 99 9K F Phoenix
1870 Patty Kennedy 00:54:18 39 9K F Phoenix
1936 Katie Rizzo 00:54:19 40 9K F Gilbert
1513 Emily Botsios 00:54:21 26 9K F Gilbert
1600 Kathy Hughes 00:54:22 34 9K F Phoenix
1501 RJ Alejandro 00:54:26 15 9K M Phoenix
1808 Kevin Just 00:54:26 99 9K M Gilbert
1983 Brett Donaldson 00:54:35 99 9K M Phoenix
1578 Amy Grainger 00:54:36 37 9K F Chandler
2005 Sergio Razo 00:54:36 37 9K M Scottsdale
1893 Brandy Sloan 00:54:38 33 9K F Phoenix
1552 Linda Dunbar 00:54:44 45 9K F Phoenix
1526 Susannah Cable 00:54:48 39 9K F Chandler
1785 Tracy Jaffie 00:54:48 36 9K F Chandler
1711 Kerry Schafer 00:54:53 52 9K F Mesa
1722 Susan Shojaee 00:54:56 50 9K F Scottsdale
1504 BARBARA ANDAZOLA 00:54:58 38 9K F MESA
1715 Jennifer Schoennagel 00:55:04 35 9K F Phoenix
1673 Keith Oetjen 00:55:07 41 9K M Gilbert
1674 Tim Oetjen 00:55:07 37 9K M Gilbert
1772 Susan Zipprich 00:55:08 49 9K F Buckeye
1628 Tammy La Fleur 00:55:10 38 9K F Phoenix
2031 Kelly Snailun 00:55:10 34 9K M Scottsdale
1668 Amber Murray 00:55:11 27 9K F Laveen
1950 Heather Bily 00:55:18 32 9K F Mesa
1740 melissa tellez 00:55:26 33 9K F phoenix
1523 Jennifer Burg 00:55:29 36 9K F Gilbert
1638 Julie Machuca 00:55:36 32 9K F Gilbert
1724 Jen Smith 00:55:36 31 9K F Phoenix
1769 Christina Zamboni 00:55:51 39 9K F Waddell
1611 Fred Johnson 00:55:58 44 9K M Tempe
1571 Michelle German 00:56:02 35 9K F Gilbert
1747 Marcie Tripp 00:56:02 34 9K F Chandler
1949 Jennifer Toeppe 00:56:16 32 9K F Mesa
2003 Mike Leonard 00:56:18 54 9K M Phoenix
1779 Barbara Hahn 00:56:22 41 9K F Gilbert
1970 Maggie Ethier 00:56:33 27 9K F Chandler
1566 Lauren Friedlander 00:56:45 34 9K F Scottsdale
1632 Lexie Larcher 00:56:48 17 9K F Paradise Valley
1596 MELISSA HODGEMAN 00:56:54 35 9K F PHOENIX
1981 David Auther 00:56:55 53 9K M Phoenix
1649 Sallie McNee 00:56:59 55 9K F Stilwell
1944 Elmer Houghten 00:56:59 79 9K M Mesa
1778 Kingsley Grant 00:57:01 45 9K M Scottsdale
1781 Krista Hebets 00:57:01 45 9K F Scottsdale
1591 Ryan Healy 00:57:02 28 9K M Mesa
1602 Audrey Iffert 00:57:19 26 9K F Mesa
1505 Rachelle Arama 00:57:22 49 9K F Phoenix
1559 Linda Farfante 00:57:28 46 9K F Phoenix
2002 Bill Handley 00:57:29 41 9K M Phoenix
1718 Susan Self 00:57:31 45 9K F Scottsdale
1737 Michelle Tarrant 00:57:31 43 9K F Chandler
1850 Christine Bailey 00:57:34 45 9K F Phoenix
1967 Karen Begay 00:57:38 44 9K F Tucson
1509 Andrea Beck 00:57:39 42 9K F Phoenix
1685 LAURA PELLEGRINI 00:57:39 40 9K F Chandler
1553 Wayne Easterling 00:57:50 59 9K M Mesa
1547 Jeffrey DeVries 00:57:57 33 9K M Litchfield Park
1546 Deborah DeVries 00:57:58 20 9K F Litchfield Park
1554 Catherine Easterling 00:57:58 52 9K F Mesa
1525 Janaye Burt 00:58:30 23 9K F Tempe
1757 Sarah Weissmueller 00:58:30 23 9K F Tempe
1572 Jammi Gholston 00:58:36 30 9K F Chandler
1956 Donna Lindly 00:58:38 52 9K F Phoenix
1957 Lauren Lindly 00:58:38 23 9K F Phoenix
1900 Mark Purcell 00:58:42 40 9K M Tempe
1814 Carmen Whisler 00:58:56 39 9K F Phoenix
1723 Amy Skaalen 00:58:59 34 9K F Scottsdale
1579 Megan Greer 00:59:10 25 9K F Gilbert
1741 Denise TenEyck 00:59:10 43 9K F Gilbert
1920 Michelle Boston 00:59:10 41 9K F Mesa
1751 Angel Wade 00:59:11 35 9K F Chandler
1840 Debbie Midtun 00:59:18 34 9K F Chandler
1705 Kristine Robles 00:59:32 17 9K F Laveen
1802 Susan Lichtsinn 00:59:32 54 9K F Phoenix
1992 Mary Kumelski 00:59:36 64 1m F Phoenix
1506 LilyCatherine Arama 00:59:39 12 9K F Phoenix
2013 Lisa Bullington 00:59:40 42 9K F Phoenix
1690 Mary Jo Prestwood 00:59:48 48 9K F Gilbert
1558 Christine Eyde 00:59:50 41 9K F Peoria
1691 Haley Prestwood 00:59:58 10 9K F Gilbert
1603 kimberly ivich 01:00:02 48 9K F tempe
1985 Lisa Dubnow 01:00:02 41 9K F Scottsdale
1748 Amy Van Horn 01:00:13 28 9K F Phoenix
1833 Julie Kubasak 01:00:14 49 9K F Phoenix
1926 Deb Coy-Cirillo 01:00:16 50 9K F Phoenix
1551 Jenna Duba 01:00:24 25 9K F Tempe
1646 susan mccusker 01:00:25 46 9K F Glendale
1971 Michael Proyles 01:00:25 24 9K M Tempe
1980 Dianne Donaldson 01:00:29 39 9K F Minnesota
1812 Walkup Runner 01:00:30 99 9K F Phoenix
1510 Kristi Bell 01:00:40 34 9K F Scottsdale
1583 Cathie Hacker 01:00:41 25 9K F peoria
1582 Samantha Gustafson 01:00:46 23 9K F Phoenix
1921 Samantha Hood 01:00:50 36 9K F Scottsdale
1941 R. Sutten 01:00:58 99 9K F Phoenix
1720 Michael Sheller 01:01:16 51 9K M Mesa
1726 Christopher Smoke 01:01:16 30 9K M Phoenix
1887 Hayley Ruffner 01:01:30 25 9K F Phoenix
1563 Kelly Foyle 01:01:33 23 9K F Phoenix
1660 kelsey montalto 01:01:33 23 9K F phoenix
1701 Helene Rivard 01:01:34 24 9K F Tempe
1529 Madelyne Cheroske 01:01:45 42 9K F Gilbert
1754 Ashleigh Weaver 01:01:47 24 9K F Kingwood
1502 Brittany Allen 01:01:49 22 9K F Phoenix
1656 Emily Miller 01:01:50 22 9K F Phoenix
1820 Walkup Runner 01:01:52 99 9K F Phoenix
1645 Karina McCluskey 01:02:07 30 9K F Chandler
1569 Tina Gartland 01:02:09 54 9K F tempe
1951 Melissa Lugay 01:02:12 42 9K F Scottsdale
2004 Beth Hunt 01:02:16 31 9K F Gilbert
1543 Bryan Davey 01:02:18 34 9K F Gilbert
1634 Amber Leeson 01:02:19 22 9K F Phoenix
1760 Courtney Wilcox 01:02:22 30 9K F Queen Creek
1567 Seth Fritsch 01:02:27 29 9K M Pheonix
2027 Cheyna Vrabec 01:02:34 29 9K F Tempe
1542 Andrea Davey 01:02:37 31 9K F Gilbert
1849 Suzanne Wheeler 01:02:39 45 9K F Golden, CO
1787 Kerrie Janik 01:02:58 44 9K F Chandler
1709 Mike Santoro 01:03:03 30 9K M Mesa
1516 Kelleen Brennan 01:03:07 37 9K F Phoenix
1825 Megan Camp 01:03:12 14 9K F Sierra Vista
1824 Kelley Camp 01:03:13 14 9K M Sierra Vista
2010 Sara Lethbridge 01:03:37 39 9K F Prescott
1972 Lisa Hamilton 01:03:40 48 9K F Phoenix
1948 Jose Rodriguez 01:03:41 15 9K M Phoenix
1929 Any Funicello 01:03:43 34 9K F Chandler
1511 Tami Berrelez 01:03:58 46 9K F Peoria
1770 Theresa Zawlocki 01:04:00 44 9K F Mesa
1856 Kingsley Grant 01:04:04 45 9K M Phoenix
1586 Bobbi Halverson 01:04:14 46 9K F Phoenix
2033 Brad Steele 01:04:21 28 9K M Tempe
1940 Rachelle Ramirez 01:04:22 99 9K F Phoenix
2028 Andrew Vrabec 01:04:30 30 9K M Tempe
1667 Megan Mungovan 01:04:31 32 9K F Gilbert
1839 Becca Self 01:04:31 15 9K F Scottsdale
1922 Jamie Layne 01:04:31 15 9K F Scottsdale
1608 Nancy Jimenez 01:04:32 30 9K F Queen Creek
1620 Pete Kimener 01:05:01 64 9K M Scottsdale
1942 Krissy Spanbauer 01:05:01 28 9K F Phoenix
2021 Christina Powell 01:05:04 39 9K F Gilbert
1896 Theresa Weiland 01:05:06 33 9K F Phoenix
1687 Stacey Perry 01:05:07 30 9K F Phoenix
1700 Heidi Rieck 01:05:07 29 9K F Chandler
1742 Jeaneen Thiele 01:05:07 33 9K F Chandler
1605 Lisa James 01:05:08 41 9K F scottsdale
1784 Monica Jackson 01:05:23 40 9K F Chandler
1932 Teresa Hauer 01:05:27 16 9K F Phoenix
1659 jennifer mitchell 01:05:35 35 9K F Phoenix
1623 Luke Kircher 01:05:44 25 9K M Gilbert
1959 Patricia Romero Hamrick 01:05:55 47 9K F Mesa
1923 Melissa Lawrence 01:05:58 99 9K F Gilbert
1686 Kim Perkins 01:06:07 41 9K M Gilbert
1680 Marc Paquette 01:06:08 44 9K M Scottsdale
2029 Catherine Berggren 01:06:11 27 9K F Phoenix
1617 Nicole Kaufman 01:06:19 33 9K F Phoenix
1858 Jan Greenhow 01:06:20 70 9K M Phoenix
1727 jessica somers 01:06:37 33 9K F scottsdale
1629 Sandy LaBauve 01:06:48 50 9K F Scottsdale
1702 Paul Robbert 01:06:49 41 9K M Chandler
1828 Sydney Mouer 01:06:53 43 9K F Scottsdale
1541 Teresa Darling 01:07:00 54 9K F Phoenix
1576 Suzanne Glover 01:07:04 37 9K F Mesa
1774 Aubreee Begay-Houston 01:07:04 17 9K F Phoenix
1827 Viola Bandow 01:07:32 43 9K F Phoenix
2037 Barbara Marshall 01:07:47 99 9K F Phoenix
1589 Rebecca Hasulak 01:07:58 21 9K F Chandler
1531 Tiffany Cheung 01:08:00 28 9K F Phoenix
1549 Anthony Dorbin 01:08:00 43 9K M Phoenix
2001 Emily Moore 01:08:23 28 9K F Phoenix
1520 Sophie Bucknell 01:08:49 15 9K F Paradise Valley
1857 Karen Greenhow 01:08:57 57 9K F Phoenix
1534 Ashley Condo 01:09:02 15 9K F Paradise Valley
1792 Katie Palmer 01:09:10 24 9K F Port St Lucie
1947 Annie Crawford 01:09:24 48 9K F Chandler
2009 Andrew Saspe 01:09:29 27 9K M Tempe
1658 Stephanie Mindlin 01:10:04 30 9K F Scottsdale
1863 Kathy Houghton 01:10:08 45 9K F Phoenix
1557 Theresa Ernst 01:10:13 38 9K F Mesa
1545 Danielle Devlin 01:10:49 33 9K F Mesa
1829 Debbie Loerakker 01:11:33 51 9K F Scottsdale
1652 Kathleen Mettler 01:11:37 46 9K F Scottsdale
1653 Lauren Mettler 01:11:37 12 9K F Scottsdale
1681 Peggy Parma 01:11:48 59 9K F Phoenix
1795 Jennifer Sheneman 01:11:53 27 9K F Phoenix
1924 Lindy Kozlowski 01:12:24 28 9K F Maricopa
1637 Tara Lukes 01:13:33 29 9K F Buckeye
1536 Cj Coppola 01:13:34 48 9K F Mesa
1537 Chris Coppola 01:13:42 49 9K M Mesa
1503 Lisa Anaguano 01:13:48 38 9K F Glendale
1719 Janice Shanks 01:13:49 60 9K F Glendale
1794 TRISHA SHENEMAN 01:13:50 28 9K F PHOENIX
1801 Janette Lukan 01:15:04 31 9K F Cave Creek
1615 Octavia Jordan 01:15:18 32 9K F Laveen
1765 Denise Williams 01:15:23 28 9K F Chandler
1968 Todd Francis 01:16:14 43 9K M Phoenix
1848 Michelle Mooney 01:16:46 43 9K F Tempe
2024 Kelly Locrakker 01:17:06 99 9K F Scottsdale
1796 MICHAEL SHENEMAN 01:17:07 30 9K M PHOENIX
1830 Steve Loerakker 01:17:07 56 9K M Scottsdale
1669 Chelsea Murrin 01:17:57 27 9K F El Mirage
1969 Marcelina Jimenez 01:18:40 11 9K F Phoenix
1938 Susan VanWie 01:19:43 35 9K F Lavine
1895 Samantha Tarazon 01:21:13 15 9K F Phoenix
1894 Melissa Tarazon 01:21:41 37 9K F Phoenix
1717 berniece scoville 01:22:07 40 9K F Phoenix
1535 Megan Condo 01:23:29 15 9K F Paradise Valley
1650 Joan McReynolds 01:23:37 53 9K F Phoenix
1672 Joanne Nelson 01:23:38 51 9K F Scottsdale
1647 Geraldine McGartland 01:25:12 68 9K F Phoenix
1561 Jeanne Finnegan 01:25:27 68 9K F Phoenix
1939 Laura Burkett 01:25:51 28 9K F Scottsdale
2023 Brandon Pickett 01:28:14 14 9K M Phoenix
1514 Jennifer Bradley 01:28:16 31 9K F Gilbert
1836 Walkup Runner 01:30:11 99 9K F Phoenix
1986 Monty Worthington 01:30:11 50 9K M Mesa
1616 Gene Judge 01:31:10 60 9K F Mesa
1797 Brandy Sloan 01:31:12 33 9K F Phoenix
1843 Roxanne? 01:31:38 99 9K F Phoenix
1962 Tina Worthington 01:32:37 52 9K F Mesa
1961 Debbie Rassel 01:32:40 53 9K F Illinois
1975 Cindy Johnson 01:32:43 59 9K F Mesa
1976 Casey McKinnon 01:32:45 25 9K M Mesa
1974 Rick Johnson 01:32:46 62 9K M Mesa
1562 Connie Flynn 01:32:49 50 9K F Scottsdale
1835 Julianna Clayton 01:33:06 24 9K F Phoenix
1838 Natalie Ehmka 01:33:06 25 9K F Chandler
2016 Mike Leong 01:33:06 33 9K M Scottsdale
1789 sarah leesman 01:43:04 23 9K F Mesa
1694 Suzanne Reddie 01:46:32 41 9K F Tempe
1725 Corissa Smith 01:46:32 28 9K F Mesa

 

Bib Name  Finish Age Div Gender City AG
Please email Info@SierraAdventureSports.com with concerns regarding timing.
Under 15 Female
2012 Kate Bullington 00:54:08 13 9K F Phoenix 1
1506 LilyCatherine Arama 00:59:39 12 9K F Phoenix 1
1691 Haley Prestwood 00:59:58 10 9K F Gilbert 1
1825 Megan Camp 01:03:12 14 9K F Sierra Vista 1
1653 Lauren Mettler 01:11:37 12 9K F Scottsdale 1
1969 Marcelina Jimenez 01:18:40 11 9K F Phoenix 1
Under 15 Male
2019 Eric Stelzer 00:43:16 11 9K M Scottsdale 1
1824 Kelley Camp 01:03:13 14 9K M Sierra Vista 1
2023 Brandon Pickett 01:28:14 14 9K M Phoenix 1
16-19 Female
1598 Savannah Hoover 00:39:47 16 9K F Chandler 2
1977 Caitlin Andreen 00:50:00 15 9K F Phoenix 2
1538 Claire Cruess 00:54:04 15 9K F Phoenix 2
1521 Catherine Bullington 00:54:04 16 9K F Phoenix 2
1522 Susie Bullington 00:54:04 16 9K F Phoenix 2
1632 Lexie Larcher 00:56:48 17 9K F Paradise Valley 2
1705 Kristine Robles 00:59:32 17 9K F Laveen 2
1839 Becca Self 01:04:31 15 9K F Scottsdale 2
1922 Jamie Layne 01:04:31 15 9K F Scottsdale 2
1932 Teresa Hauer 01:05:27 16 9K F Phoenix 2
1774 Aubreee Begay-Houston 01:07:04 17 9K F Phoenix 2
1520 Sophie Bucknell 01:08:49 15 9K F Paradise Valley 2
1534 Ashley Condo 01:09:02 15 9K F Paradise Valley 2
1895 Samantha Tarazon 01:21:13 15 9K F Phoenix 2
1535 Megan Condo 01:23:29 15 9K F Paradise Valley 2
16-19 Male
1822 Brandon Wyatt 00:36:12 19 9K M Tempe 2
1925 Dustyn Owsley 00:39:59 16 9K M Phoenix 2
2018 Ryan Stelzer 00:44:06 15 9K M Scottsdale 2
2020 Louis Hallman 00:45:45 16 9K M Tempe 2
1788 Tom Leach 00:48:30 15 9K M Chandler 2
1501 RJ Alejandro 00:54:26 15 9K M Phoenix 2
1948 Jose Rodriguez 01:03:41 15 9K M Phoenix 2
20-24 Female
2007 Ariel Tichnor 00:42:28 23 9K F Phoenix 3
1927 Leah Schafer 00:44:49 22 9K F Mesa 3
1655 Kaitlyn Miller 00:51:09 22 9K F Scottsdale 3
1676 Colleen Orth 00:51:33 24 9K F Phoenix 3
1626 Crystal Korp 00:52:10 23 9K F Phoenix 3
1581 Sarah Gude 00:52:12 23 9K F Gilbert 3
1766 Julia Wipf 00:53:10 20 9K F Tempe 3
1555 Maria Eichhold 00:53:34 23 9K F Glendale 3
1546 Deborah DeVries 00:57:58 20 9K F Litchfield Park 3
1525 Janaye Burt 00:58:30 23 9K F Tempe 3
1757 Sarah Weissmueller 00:58:30 23 9K F Tempe 3
1957 Lauren Lindly 00:58:38 23 9K F Phoenix 3
1582 Samantha Gustafson 01:00:46 23 9K F Phoenix 3
1563 Kelly Foyle 01:01:33 23 9K F Phoenix 3
1660 kelsey montalto 01:01:33 23 9K F phoenix 3
1701 Helene Rivard 01:01:34 24 9K F Tempe 3
1754 Ashleigh Weaver 01:01:47 24 9K F Kingwood 3
1502 Brittany Allen 01:01:49 22 9K F Phoenix 3
1656 Emily Miller 01:01:50 22 9K F Phoenix 3
1634 Amber Leeson 01:02:19 22 9K F Phoenix 3
1589 Rebecca Hasulak 01:07:58 21 9K F Chandler 3
1792 Katie Palmer 01:09:10 24 9K F Port St Lucie 3
1835 Julianna Clayton 01:33:06 24 9K F Phoenix 3
1789 sarah leesman 01:43:04 23 9K F Mesa 3
20-24 Male
1818 Ryan Nelson 00:35:45 22 9K M Anthem 3
2008 John Taska 00:37:27 22 9K M Tempe 3
1834 Jason Censky 00:44:31 21 9K M Tucson 3
1971 Michael Proyles 01:00:25 24 9K M Tempe 3
25-29 Female
1803 Morgan! Stanton! (70.2) 00:38:12 27 9K F Chandler 4
2050 Kim Peihl 00:44:26 26 9K F Tempe 4
1707 Kristin Russell 00:47:54 27 9K F Tempe 4
1613 Dana Joost 00:49:00 29 9K F Chandler 4
1593 Therese Hensler 00:49:29 28 9K F Scottsdale 4
1643 Alexia Matak 00:49:45 29 9K F Scottsdale 4
1783 Sarah Hughes 00:50:04 29 9K F Chicago 4
1575 jennifer gloria 00:51:11 28 9K F mesa 4
1662 Lillie Moore 00:51:28 29 9K F Phoenix 4
1679 Amy O'Sullivan 00:52:03 28 9K F Scottsdale 4
1651 Erika Mesick 00:52:12 27 9K F Wauwatosa 4
1631 Leanne LaMoure 00:52:16 28 9K F Phoenix 4
1699 Sr. Augustine Marie Reyburn 00:52:19 28 9K F Black Canyon City 4
1627 Karen Kuzmovich 00:52:27 27 9K F Chandler 4
1684 Leslie Pechkurow 00:52:59 28 9K F Tempe 4
1984 Alexis DelChiaro 00:53:24 28 9K F Phoenix 4
1750 bethany votaw 00:54:01 29 9K F gilbert 4
1678 Krista Osterberg Parmelee 00:54:06 29 9K F Mesa 4
1513 Emily Botsios 00:54:21 26 9K F Gilbert 4
1668 Amber Murray 00:55:11 27 9K F Laveen 4
1970 Maggie Ethier 00:56:33 27 9K F Chandler 4
1602 Audrey Iffert 00:57:19 26 9K F Mesa 4
1579 Megan Greer 00:59:10 25 9K F Gilbert 4
1748 Amy Van Horn 01:00:13 28 9K F Phoenix 4
1551 Jenna Duba 01:00:24 25 9K F Tempe 4
1583 Cathie Hacker 01:00:41 25 9K F peoria 4
1887 Hayley Ruffner 01:01:30 25 9K F Phoenix 4
2027 Cheyna Vrabec 01:02:34 29 9K F Tempe 4
1942 Krissy Spanbauer 01:05:01 28 9K F Phoenix 4
1700 Heidi Rieck 01:05:07 29 9K F Chandler 4
2029 Catherine Berggren 01:06:11 27 9K F Phoenix 4
1531 Tiffany Cheung 01:08:00 28 9K F Phoenix 4
2001 Emily Moore 01:08:23 28 9K F Phoenix 4
1795 Jennifer Sheneman 01:11:53 27 9K F Phoenix 4
1924 Lindy Kozlowski 01:12:24 28 9K F Maricopa 4
1637 Tara Lukes 01:13:33 29 9K F Buckeye 4
1794 TRISHA SHENEMAN 01:13:50 28 9K F PHOENIX 4
1765 Denise Williams 01:15:23 28 9K F Chandler 4
1669 Chelsea Murrin 01:17:57 27 9K F El Mirage 4
1939 Laura Burkett 01:25:51 28 9K F Scottsdale 4
1838 Natalie Ehmka 01:33:06 25 9K F Chandler 4
1725 Corissa Smith 01:46:32 28 9K F Mesa 4
25-29 Male
1934 Nathan Rath 00:31:55 28 9K M Chandler 4
1721 Stuart Shoen 00:39:03 29 9K M Phoenix 4
1899 Brian Watson 00:39:24 26 9K M Tempe 4
2036 Joe McDaniel 00:41:00 29 9K M Scottsdale 4
1841 Brad Clemens 00:41:21 28 9K M Tempe 4
1585 Jake Hadziev 00:44:40 28 9K M phoenix 4
1580 Jerry Greer 00:44:43 28 9K M Gilbert 4
1577 Grant Goss 00:46:37 29 9K M Scottsdale 4
1610 RAYMOND JOHNSON 00:48:40 26 9K M PHOENIX 4
1594 Matt Hensler 00:49:34 28 9K M Scottsdale 4
2026 Matt Young 00:51:16 26 9K M Phoenix 4
1931 Dustin Hofstein 00:52:51 27 9K M Chandler 4
1758 Brendan Wells 00:53:31 29 9K M Scottsdale 4
1591 Ryan Healy 00:57:02 28 9K M Mesa 4
1567 Seth Fritsch 01:02:27 29 9K M Pheonix 4
2033 Brad Steele 01:04:21 28 9K M Tempe 4
1623 Luke Kircher 01:05:44 25 9K M Gilbert 4
2009 Andrew Saspe 01:09:29 27 9K M Tempe 4
1976 Casey McKinnon 01:32:45 25 9K M Mesa 4
30-34 Female
1771 Katie Zeiders 00:42:20 30 9K F Tempe 5
1946 Justina Silva 00:43:20 30 9K F Scottsdale 5
1696 Amy Reid 00:48:03 31 9K F Chandler 5
1619 Elizabeth Kern 00:49:01 34 9K F Chandler 5
1588 Margaret Hannahs 00:49:52 34 9K F Gilbert 5
1609 RAMONA JOHNSON 00:51:04 32 9K F TOLLESON 5
2025 Ann Marie Sunderhaus 00:51:17 32 9K F Phoenix 5
1889 Andrea Schmalzer 00:51:26 32 9K F Phoenix 5
1800 Trisha Gosser 00:52:13 31 9K F Phoenix 5
1738 Kimberly Taylor 00:52:27 30 9K F Chandler 5
1533 Diana Collins 00:52:35 33 9K F Gilbert 5
1641 Lynnette Martin 00:52:49 33 9K F Mesa 5
1933 Heather Garbarino 00:52:59 31 9K F Phoenix 5
1560 Ann Finnegan 00:53:04 30 9K F Phoenix 5
1657 Shara Miller 00:53:06 34 9K F scottsdale 5
1600 Kathy Hughes 00:54:22 34 9K F Phoenix 5
1893 Brandy Sloan 00:54:38 33 9K F Phoenix 5
1950 Heather Bily 00:55:18 32 9K F Mesa 5
1740 melissa tellez 00:55:26 33 9K F phoenix 5
1724 Jen Smith 00:55:36 31 9K F Phoenix 5
1638 Julie Machuca 00:55:36 32 9K F Gilbert 5
1747 Marcie Tripp 00:56:02 34 9K F Chandler 5
1949 Jennifer Toeppe 00:56:16 32 9K F Mesa 5
1566 Lauren Friedlander 00:56:45 34 9K F Scottsdale 5
1572 Jammi Gholston 00:58:36 30 9K F Chandler 5
1723 Amy Skaalen 00:58:59 34 9K F Scottsdale 5
1840 Debbie Midtun 00:59:18 34 9K F Chandler 5
1510 Kristi Bell 01:00:40 34 9K F Scottsdale 5
1645 Karina McCluskey 01:02:07 30 9K F Chandler 5
2004 Beth Hunt 01:02:16 31 9K F Gilbert 5
1543 Bryan Davey 01:02:18 34 9K F Gilbert 5
1760 Courtney Wilcox 01:02:22 30 9K F Queen Creek 5
1542 Andrea Davey 01:02:37 31 9K F Gilbert 5
1929 Any Funicello 01:03:43 34 9K F Chandler 5
1667 Megan Mungovan 01:04:31 32 9K F Gilbert 5
1608 Nancy Jimenez 01:04:32 30 9K F Queen Creek 5
1896 Theresa Weiland 01:05:06 33 9K F Phoenix 5
1687 Stacey Perry 01:05:07 30 9K F Phoenix 5
1742 Jeaneen Thiele 01:05:07 33 9K F Chandler 5
1617 Nicole Kaufman 01:06:19 33 9K F Phoenix 5
1727 jessica somers 01:06:37 33 9K F scottsdale 5
1658 Stephanie Mindlin 01:10:04 30 9K F Scottsdale 5
1545 Danielle Devlin 01:10:49 33 9K F Mesa 5
1801 Janette Lukan 01:15:04 31 9K F Cave Creek 5
1615 Octavia Jordan 01:15:18 32 9K F Laveen 5
1514 Jennifer Bradley 01:28:16 31 9K F Gilbert 5
1797 Brandy Sloan 01:31:12 33 9K F Phoenix 5
30-34 Male
1960 Bobby Mirzaie 00:35:21 31 9K M Scottsdale 5
1664 jose morales 00:37:41 31 9K M phoenix 5
1804 Zach! Chamberlin! (70.2) 00:40:19 34 9K M Chandler 5
1683 Doug Paul 00:42:40 32 9K M PHOENIX 5
1786 john janik 00:47:06 32 9K M Chandler 5
1782 Kevin Heins 00:47:23 32 9K M Sierra Vista 5
1614 Kalen Joost 00:48:45 33 9K M Chandler 5
1777 Patrick Flanagan 00:49:24 30 9K M Chicago 5
1666 Jamie Morris 00:50:09 34 9K M Peoria 5
1677 Joel Osinga 00:51:44 30 9K M Chandler 5
2032 Dave Crawford 00:52:28 31 9K M Phoenix 5
1819 Nathan DeWitt 00:53:29 32 9K M Tempe 5
2031 Kelly Snailun 00:55:10 34 9K M Scottsdale 5
1547 Jeffrey DeVries 00:57:57 33 9K M Litchfield Park 5
1726 Christopher Smoke 01:01:16 30 9K M Phoenix 5
1709 Mike Santoro 01:03:03 30 9K M Mesa 5
2028 Andrew Vrabec 01:04:30 30 9K M Tempe 5
1796 MICHAEL SHENEMAN 01:17:07 30 9K M PHOENIX 5
2016 Mike Leong 01:33:06 33 9K M Scottsdale 5
35-39 Female
1601 Jennifer Iben 00:43:49 39 9K F Tempe 6
1697 Karen Rein 00:44:24 37 9K F Scottsdale 6
1978 Kristine Holland 00:45:16 37 9K F Phoenix 6
1584 Sylvia Hackett 00:47:08 36 9K F Mesa 6
1846 Kim Boullion 00:49:07 39 9K F scottsdale 6
1573 Grace Giacobbi 00:49:52 39 9K F Chandler 6
1753 Rikki Waller 00:49:54 37 9K F Maricopa 6
1955 Julie Lenoch 00:49:55 36 9K F Colorado 6
1688 Christina Pieper 00:50:20 35 9K F Gilbert 6
1661 Becky Moon 00:52:08 39 9K F Gilbert 6
1565 Laura Freeman 00:52:29 35 9K F Phoenix 6
1587 CharlaAnne Hamilton 00:53:52 35 9K F Chandler 6
1654 Jamie Mikla 00:54:04 38 9K F Gilbert
1767 Carolyn Woods 00:54:08 38 9K F Gilbert 6
1870 Patty Kennedy 00:54:18 39 9K F Phoenix 6
1578 Amy Grainger 00:54:36 37 9K F Chandler 6
1785 Tracy Jaffie 00:54:48 36 9K F Chandler 6
1526 Susannah Cable 00:54:48 39 9K F Chandler 6
1504 BARBARA ANDAZOLA 00:54:58 38 9K F MESA 6
1715 Jennifer Schoennagel 00:55:04 35 9K F Phoenix 6
1628 Tammy La Fleur 00:55:10 38 9K F Phoenix 6
1523 Jennifer Burg 00:55:29 36 9K F Gilbert 6
1769 Christina Zamboni 00:55:51 39 9K F Waddell 6
1571 Michelle German 00:56:02 35 9K F Gilbert 6
1596 MELISSA HODGEMAN 00:56:54 35 9K F PHOENIX 6
1814 Carmen Whisler 00:58:56 39 9K F Phoenix 6
1751 Angel Wade 00:59:11 35 9K F Chandler 6
1980 Dianne Donaldson 01:00:29 39 9K F Minnesota 6
1921 Samantha Hood 01:00:50 36 9K F Scottsdale 6
1516 Kelleen Brennan 01:03:07 37 9K F Phoenix 6
2010 Sara Lethbridge 01:03:37 39 9K F Prescott 6
2021 Christina Powell 01:05:04 39 9K F Gilbert 6
1659 jennifer mitchell 01:05:35 35 9K F Phoenix 6
1576 Suzanne Glover 01:07:04 37 9K F Mesa 6
1557 Theresa Ernst 01:10:13 38 9K F Mesa 6
1503 Lisa Anaguano 01:13:48 38 9K F Glendale 6
1938 Susan VanWie 01:19:43 35 9K F Lavine 6
1894 Melissa Tarazon 01:21:41 37 9K F Phoenix 6
35-39 Male
1698 Philip Rein 00:40:12 38 9K M Scottsdale 6
1973 Mike O'Donnell 00:42:08 37 9K M Tempe 6
2014 Travis Drzy 00:43:24 39 9K M Tempe 6
1692 Chris Quadrini 00:43:55 37 9K M Phoenix 6
1530 Alex Cheroske 00:44:29 39 9K M Gilbert 6
1845 Sarah Redolpho 00:49:07 38 9K M scottsdale 6
1732 Gene Stout 00:49:17 37 9K M Phoenix 6
1621 timothy kingsley 00:49:18 36 9K M scottsdale 6
1991 Michael Kumelski 00:49:55 37 9K M Phoenix 6
1954 Mike Rafford 00:51:16 38 9K M Tempe 6
2005 Sergio Razo 00:54:36 37 9K M Scottsdale 6
1674 Tim Oetjen 00:55:07 37 9K M Gilbert 6
40-44 Female
1930 Monika Kennedy 00:42:54 42 9K F Phoenix 7
1764 April Williams 00:47:43 44 9K F Scottsdale 7
1612 Kelly Jones 00:49:17 40 9K F Peoria 7
1810 Shawn Bichler 00:49:49 43 9K F Scottsdale 7
1630 Amy Lahr 00:51:15 42 9K F Scottsdale 7
1570 Amy Garza 00:51:46 41 9K F Tempe 7
1964 Shari Goin 00:52:07 44 9K F Phoenix 7
1706 Liz Rueter 00:52:38 42 9K F chandler 7
1943 Stephanie Jones 00:53:57 43 9K F Chandler 7
1936 Katie Rizzo 00:54:19 40 9K F Gilbert 7
1779 Barbara Hahn 00:56:22 41 9K F Gilbert 7
1737 Michelle Tarrant 00:57:31 43 9K F Chandler 7
1967 Karen Begay 00:57:38 44 9K F Tucson 7
1685 LAURA PELLEGRINI 00:57:39 40 9K F Chandler 7
1509 Andrea Beck 00:57:39 42 9K F Phoenix 7
1920 Michelle Boston 00:59:10 41 9K F Mesa 7
1741 Denise TenEyck 00:59:10 43 9K F Gilbert 7
2013 Lisa Bullington 00:59:40 42 9K F Phoenix 7
1558 Christine Eyde 00:59:50 41 9K F Peoria 7
1985 Lisa Dubnow 01:00:02 41 9K F Scottsdale 7
1529 Madelyne Cheroske 01:01:45 42 9K F Gilbert 7
1951 Melissa Lugay 01:02:12 42 9K F Scottsdale 7
1787 Kerrie Janik 01:02:58 44 9K F Chandler 7
1770 Theresa Zawlocki 01:04:00 44 9K F Mesa 7
1605 Lisa James 01:05:08 41 9K F scottsdale 7
1784 Monica Jackson 01:05:23 40 9K F Chandler 7
1828 Sydney Mouer 01:06:53 43 9K F Scottsdale 7
1827 Viola Bandow 01:07:32 43 9K F Phoenix 7
1848 Michelle Mooney 01:16:46 43 9K F Tempe 7
1717 berniece scoville 01:22:07 40 9K F Phoenix 7
1694 Suzanne Reddie 01:46:32 41 9K F Tempe 7
40-44 male
1515 Chris Bradley 00:41:47 41 9K M Gilbert 7
1739 Chuck Taylor 00:43:22 43 9K M Gilbert 7
1937 Russ Frederiksen 00:43:37 42 9K M Phoenix 7
1648 Andrew McGuire 00:44:35 41 9K M Mesa 7
1847 Mark Schwietz 00:44:48 43 9K M Phoenix 7
1763 DAVID WILLIAMS . 00:44:55 44 9K M Scottsdale 7
2051 Paul Kent 00:44:59 43 9K M Tempe 7
1730 Markus Stenzer 00:51:07 40 9K M Scottsdale 7
2017 Jim Stelzer 00:51:27 43 9K M Scottsdale 7
1508 Jeffrey Barnett 00:52:22 40 9K M Tempe 7
1682 Javier Parra 00:54:09 40 9K M Gilbert 7
1935 Nick Rizzo 00:54:11 40 9K M Gilbert 7
1673 Keith Oetjen 00:55:07 41 9K M Gilbert 7
1611 Fred Johnson 00:55:58 44 9K M Tempe 7
2002 Bill Handley 00:57:29 41 9K M Phoenix 7
1900 Mark Purcell 00:58:42 40 9K M Tempe 7
1686 Kim Perkins 01:06:07 41 9K M Gilbert 7
1680 Marc Paquette 01:06:08 44 9K M Scottsdale 7
1702 Paul Robbert 01:06:49 41 9K M Chandler 7
1549 Anthony Dorbin 01:08:00 43 9K M Phoenix 7
1968 Todd Francis 01:16:14 43 9K M Phoenix 7
45-49 Female
1790 Kelly Miller 00:42:29 46 9K F Scottsdale 8
1768 Catherine Wyman 00:44:10 47 9K F Phoenix 8
2006 Karen Smith 00:45:51 45 9K F Tempe 8
1528 cyndi carter 00:48:00 45 9K F scottsdale 8
1556 Mona Ekstrand 00:48:21 48 9K F Tempe 8
1606 Meehae Jang 00:48:38 47 9K F Phoenix 8
1811 Kim Gifford 00:49:51 46 9K F Chandler 8
1953 Jonea Mounsey 00:51:35 48 9K F Peoria 8
1710 Pauline Scanlon 00:51:48 45 9K F Scottsdale 8
1982 Iman Donaldson 00:52:42 45 9K F Phoenix 8
1624 Marisa Kobar 00:53:51 47 9K F Gilbert 8
1552 Linda Dunbar 00:54:44 45 9K F Phoenix 8
1772 Susan Zipprich 00:55:08 49 9K F Buckeye 8
1781 Krista Hebets 00:57:01 45 9K F Scottsdale 8
1505 Rachelle Arama 00:57:22 49 9K F Phoenix 8
1559 Linda Farfante 00:57:28 46 9K F Phoenix 8
1718 Susan Self 00:57:31 45 9K F Scottsdale 8
1850 Christine Bailey 00:57:34 45 9K F Phoenix 8
1690 Mary Jo Prestwood 00:59:48 48 9K F Gilbert 8
1603 kimberly ivich 01:00:02 48 9K F tempe 8
1833 Julie Kubasak 01:00:14 49 9K F Phoenix 8
1646 susan mccusker 01:00:25 46 9K F Glendale 8
1849 Suzanne Wheeler 01:02:39 45 9K F Golden, CO 8
1972 Lisa Hamilton 01:03:40 48 9K F Phoenix 8
1511 Tami Berrelez 01:03:58 46 9K F Peoria 8
1586 Bobbi Halverson 01:04:14 46 9K F Phoenix 8
1959 Patricia Romero Hamrick 01:05:55 47 9K F Mesa 8
1947 Annie Crawford 01:09:24 48 9K F Chandler 8
1863 Kathy Houghton 01:10:08 45 9K F Phoenix 8
1652 Kathleen Mettler 01:11:37 46 9K F Scottsdale 8
1536 Cj Coppola 01:13:34 48 9K F Mesa 8
45-49 Male
1979 Marc Mousseux 00:39:45 45 9K M Tempe 8
1809 Fritz Rumpf 00:39:56 47 9K M Phoenix 8
1826 Gage Camp 00:41:55 49 9K M Sierra Vista 8
1875 Andy Kunasek 00:45:35 46 9K M Phoenix 8
1897 Dave Wells 00:48:23 45 9K M Phoenix 8
1963 Anthony Nowicki 00:50:46 46 9K M Gilbert 8
1639 Tim Macuga 00:51:08 46 9K M Tempe 8
2022 Hugh Hallman 00:53:11 47 9K M Tempe 8
1778 Kingsley Grant 00:57:01 45 9K M Scottsdale 8
1856 Kingsley Grant 01:04:04 45 9K M Phoenix 8
1537 Chris Coppola 01:13:42 49 9K M Mesa 8
50-54 Female
1574 Diane Gibboni 00:49:22 53 9K F Glendale 9
1775 Maria Caselli 00:52:14 52 9K F Scottsdale 9
1928 Connie Lagerhausen 00:52:30 53 9K F Mesa 9
1711 Kerry Schafer 00:54:53 52 9K F Mesa 9
1722 Susan Shojaee 00:54:56 50 9K F Scottsdale 9
1554 Catherine Easterling 00:57:58 52 9K F Mesa 9
1956 Donna Lindly 00:58:38 52 9K F Phoenix 9
1802 Susan Lichtsinn 00:59:32 54 9K F Phoenix 9
1926 Deb Coy-Cirillo 01:00:16 50 9K F Phoenix 9
1569 Tina Gartland 01:02:09 54 9K F tempe 9
1629 Sandy LaBauve 01:06:48 50 9K F Scottsdale 9
1541 Teresa Darling 01:07:00 54 9K F Phoenix 9
1829 Debbie Loerakker 01:11:33 51 9K F Scottsdale 9
1650 Joan McReynolds 01:23:37 53 9K F Phoenix 9
1672 Joanne Nelson 01:23:38 51 9K F Scottsdale 9
1962 Tina Worthington 01:32:37 52 9K F Mesa 9
1961 Debbie Rassel 01:32:40 53 9K F Illinois 9
1562 Connie Flynn 01:32:49 50 9K F Scottsdale 9
50-54 Male
1712 Jim Schafer 00:44:48 52 9K M Mesa 9
1874 Tom Klein 00:44:54 50 9K M Phoenix 9
2015 Davide Sayada 00:48:21 53 9K M Chandler 9
1805 Andy Wangrycht 00:48:32 52 9K M Tempe 9
1776 Richard Caselli 00:52:13 50 9K M Scottsdale 9
2003 Mike Leonard 00:56:18 54 9K M Phoenix 9
1981 David Auther 00:56:55 53 9K M Phoenix 9
1720 Michael Sheller 01:01:16 51 9K M Mesa 9
1986 Monty Worthington 01:30:11 50 9K M Mesa 9
55-59 Female
1649 Sallie McNee 00:56:59 55 9K F Stilwell 10
1857 Karen Greenhow 01:08:57 57 9K F Phoenix 10
1681 Peggy Parma 01:11:48 59 9K F Phoenix 10
1975 Cindy Johnson 01:32:43 59 9K F Mesa 10
55-59 Male
2035 Jesus Rios 00:54:05 59 9K M Tucson 10
1553 Wayne Easterling 00:57:50 59 9K M Mesa 10
1830 Steve Loerakker 01:17:07 56 9K M Scottsdale 10
60-64 Female
1992 Mary Kumelski 00:59:36 64 1m F Phoenix 11
1719 Janice Shanks 01:13:49 60 9K F Glendale 11
1616 Gene Judge 01:31:10 60 9K F Mesa 11
60-64 Male
1604 Gordon James 00:52:21 62 9K M Scottsdale 11
1620 Pete Kimener 01:05:01 64 9K M Scottsdale 11
1974 Rick Johnson 01:32:46 62 9K M Mesa 11
65 & Over Female
1647 Geraldine McGartland 01:25:12 68 9K F Phoenix 12
1561 Jeanne Finnegan 01:25:27 68 9K F Phoenix 12
65 & Over Male
1944 Elmer Houghten 00:56:59 79 9K M Mesa 12
1858 Jan Greenhow 01:06:20 70 9K M Phoenix 12
Did not indicate age on registration form Female
1807 Becky Miller 00:45:03 99 9K F Phoenix 13
1831 Lisa Potter? 00:45:06 99 9K F Phoenix 13
1844 Merle McDonald? 00:54:12 99 9K F Phoenix 13
1812 Walkup Runner 01:00:30 99 9K F Phoenix 13
1941 R. Sutten 01:00:58 99 9K F Phoenix 13
1820 Walkup Runner 01:01:52 99 9K F Phoenix 13
1940 Rachelle Ramirez 01:04:22 99 9K F Phoenix 13
1923 Melissa Lawrence 01:05:58 99 9K F Gilbert 13
2037 Barbara Marshall 01:07:47 99 9K F Phoenix 13
2024 Kelly Locrakker 01:17:06 99 9K F Scottsdale 13
1836 Walkup Runner 01:30:11 99 9K F Phoenix 13
1843 Roxanne? 01:31:38 99 9K F Phoenix 13
Did not indicate age on registration form Male
2030 Bob Vossoughi 00:38:49 99 9K M Scottsdale 13
1842 Walkup Runner 00:41:23 99 9K M Phoenix 13
1952 John Finnegan 00:46:24 99 9K M Scottsdale 13
2011 Jason Roth 00:49:46 99 9K M Scottsdale 13
1881 Dan Morrison 00:51:49 99 9K M Phoenix 13
2038 Katherine Nikes 00:52:02 99 9K M Tempe 13
2034 Janet Rios 00:54:05 99 9K M Phoenix 13
1808 Kevin Just 00:54:26 99 9K M Gilbert 13
1983 Brett Donaldson 00:54:35 99 9K M Phoenix 13

 

 

 

 

Copyright Sierra Adventure Sports. All rights reserved.